| time (UTC) | temp F | wind direction | speed MPH | gust MPH | rain 1hr in | rain 24hr in | rain mn in | humidity % | barometer mb |
| 20260901194108 | 91 | 164 | 5.0 | 9.0 | 0.00 | 0.02 | 0.00 | 31 | 1016.8 |
| 20260901193107 | 90 | 171 | 2.0 | 5.0 | 0.00 | 0.02 | 0.00 | 33 | 1017.0 |
| 20260901192110 | 91 | 184 | 1.0 | 5.0 | 0.00 | 0.02 | 0.00 | 32 | 1017.3 |
| 20260901192025 | 91 | 220 | 2.0 | 7.0 | 0.00 | 0.02 | 0.00 | 32 | 1017.0 |
| 20260901191123 | 90 | 360 | 0.0 | 2.0 | 0.00 | 0.02 | 0.00 | 34 | 1017.3 |
| 20260901190110 | 88 | 267 | 0.0 | 2.0 | 0.00 | 0.03 | 0.00 | 36 | 1017.3 |
| 20260901185206 | 90 | 328 | 2.0 | 6.0 | 0.00 | 0.04 | 0.00 | 34 | 1017.7 |
| 20260901184211 | 88 | 150 | 0.0 | 2.0 | 0.00 | 0.04 | 0.00 | 37 | 1017.8 |
| 20260901183227 | 87 | 294 | 2.0 | 4.0 | 0.00 | 0.06 | 0.00 | 38 | 1017.9 |
| 20260901182225 | 88 | 336 | 1.0 | 4.0 | 0.00 | 0.21 | 0.00 | 38 | 1018.1 |
| 20260901181208 | 88 | 67 | 3.0 | 5.0 | 0.00 | 0.21 | 0.00 | 38 | 1018.1 |
| 20260901181125 | 88 | 47 | 1.0 | 4.0 | 0.00 | 0.21 | 0.00 | 38 | 1018.3 |
| 20260901180026 | 87 | 202 | 1.0 | 3.0 | 0.00 | 0.21 | 0.00 | 39 | 1018.4 |
| 20260901175007 | 86 | 114 | 1.0 | 3.0 | 0.00 | 0.21 | 0.00 | 40 | 1018.5 |
| 20260901174008 | 85 | 142 | 3.0 | 6.0 | 0.00 | 0.21 | 0.00 | 41 | 1018.5 |
| 20260901173022 | 86 | 61 | 3.0 | 7.0 | 0.00 | 0.21 | 0.00 | 42 | 1018.5 |
| 20260901172007 | 84 | 177 | 2.0 | 3.0 | 0.00 | 0.21 | 0.00 | 44 | 1018.6 |
| 20260901171007 | 84 | 136 | 1.0 | 2.0 | 0.00 | 0.21 | 0.00 | 44 | 1018.7 |
| 20260901170022 | 83 | 339 | 0.0 | 1.0 | 0.00 | 0.21 | 0.00 | 45 | 1018.7 |
| 20260901165109 | 82 | 157 | 0.0 | 3.0 | 0.00 | 0.21 | 0.00 | 46 | 1018.8 |
| 20260901164107 | 81 | 286 | 3.0 | 5.0 | 0.00 | 0.21 | 0.00 | 48 | 1018.9 |
| 20260901163123 | 79 | 180 | 0.0 | 0.0 | 0.00 | 0.21 | 0.00 | 50 | 1018.8 |
| 20260901162109 | 78 | 202 | 2.0 | 3.0 | 0.00 | 0.21 | 0.00 | 52 | 1018.9 |
| 20260901160123 | 76 | 220 | 3.0 | 4.0 | 0.00 | 0.21 | 0.00 | 55 | 1019.0 |
| 20260901155209 | 75 | 202 | 3.0 | 5.0 | 0.00 | 0.21 | 0.00 | 56 | 1018.9 |
| 20260901154307 | 75 | 157 | 1.0 | 1.0 | 0.00 | 0.21 | 0.00 | 57 | 1018.9 |
| 20260901153406 | 75 | 157 | 2.0 | 3.0 | 0.00 | 0.21 | 0.00 | 56 | 1019.1 |
| 20260901152423 | 76 | 202 | 3.0 | 4.0 | 0.00 | 0.21 | 0.00 | 54 | 1019.2 |
| 20260901150423 | 75 | 180 | 2.0 | 3.0 | 0.00 | 0.21 | 0.00 | 57 | 1019.2 |
| 20260901145408 | 74 | 202 | 0.0 | 1.0 | 0.00 | 0.21 | 0.00 | 58 | 1019.2 |
| 20260901144505 | 74 | 315 | 0.0 | 0.0 | 0.00 | 0.21 | 0.00 | 59 | 1019.2 |
| 20260901143509 | 72 | 315 | 0.0 | 0.0 | 0.00 | 0.21 | 0.00 | 62 | 1019.2 |
| 20260901142523 | 70 | 315 | 0.0 | 0.0 | 0.00 | 0.21 | 0.00 | 65 | 1019.2 |
| 20260901141608 | 71 | 2 | 0.0 | 3.0 | 0.00 | 0.21 | 0.00 | 63 | 1019.2 |
| 20260901140626 | 69 | 360 | 1.0 | 1.0 | 0.00 | 0.21 | 0.00 | 67 | 1019.3 |
| 20260901134708 | 67 | 337 | 0.0 | 0.0 | 0.00 | 0.21 | 0.00 | 72 | 1019.4 |
| 20260901133722 | 65 | 337 | 1.0 | 1.0 | 0.00 | 0.21 | 0.00 | 74 | 1019.2 |
| 20260901132809 | 65 | 337 | 0.0 | 1.0 | 0.00 | 0.21 | 0.00 | 76 | 1019.1 |
| 20260901132707 | 65 | 337 | 0.0 | 1.0 | 0.00 | 0.21 | 0.00 | 76 | 1019.2 |
| 20260901131707 | 65 | 337 | 2.0 | 2.0 | 0.00 | 0.21 | 0.00 | 74 | 1019.0 |
| 20260901130709 | 65 | 295 | 0.0 | 2.0 | 0.00 | 0.21 | 0.00 | 74 | 1019.0 |
| 20260901125723 | 65 | 270 | 0.0 | 0.0 | 0.00 | 0.21 | 0.00 | 73 | 1019.0 |
| 20260901124822 | 65 | 270 | 0.0 | 0.0 | 0.00 | 0.21 | 0.00 | 73 | 1018.9 |
| 20260901122923 | 65 | 315 | 2.0 | 3.0 | 0.00 | 0.21 | 0.00 | 73 | 1018.9 |
| 20260901122022 | 65 | 315 | 0.0 | 0.0 | 0.00 | 0.21 | 0.00 | 74 | 1019.0 |
| 20260901121008 | 65 | 315 | 0.0 | 0.0 | 0.00 | 0.21 | 0.00 | 73 | 1019.0 |
| 20260901120107 | 65 | 315 | 0.0 | 0.0 | 0.00 | 0.21 | 0.00 | 74 | 1019.0 |
| 20260901115107 | 65 | 315 | 0.0 | 0.0 | 0.00 | 0.21 | 0.00 | 74 | 1019.0 |
| 20260901114107 | 66 | 315 | 0.0 | 0.0 | 0.00 | 0.21 | 0.00 | 72 | 1019.1 |
| 20260901114022 | 66 | 315 | 0.0 | 0.0 | 0.00 | 0.21 | 0.00 | 73 | 1019.0 |
| 20260901113006 | 66 | 315 | 0.0 | 0.0 | 0.00 | 0.21 | 0.00 | 71 | 1019.0 |
| 20260901112007 | 66 | 315 | 2.0 | 3.0 | 0.00 | 0.21 | 0.00 | 71 | 1019.0 |
| 20260901111106 | 66 | 337 | 0.0 | 1.0 | 0.00 | 0.21 | 0.00 | 72 | 1019.1 |
| 20260901105208 | 66 | 337 | 1.0 | 2.0 | 0.00 | 0.21 | 0.00 | 71 | 1018.9 |
| 20260901104306 | 66 | 247 | 0.0 | 0.0 | 0.00 | 0.21 | 0.00 | 70 | 1018.8 |
| 20260901102406 | 67 | 292 | 0.0 | 0.0 | 0.00 | 0.21 | 0.00 | 69 | 1018.8 |
| 20260901101408 | 67 | 292 | 0.0 | 0.0 | 0.00 | 0.21 | 0.00 | 70 | 1019.0 |
| 20260901101322 | 67 | 292 | 0.0 | 0.0 | 0.00 | 0.21 | 0.00 | 69 | 1019.0 |
| 20260901100308 | 67 | 360 | 0.0 | 0.0 | 0.00 | 0.21 | 0.00 | 70 | 1018.9 |
| 20260901095407 | 67 | 15 | 1.0 | 2.0 | 0.00 | 0.21 | 0.00 | 70 | 1019.0 |
| 20260901094406 | 66 | 337 | 1.0 | 2.0 | 0.00 | 0.21 | 0.00 | 70 | 1018.9 |
| 20260901093421 | 67 | 360 | 0.0 | 0.0 | 0.00 | 0.21 | 0.00 | 69 | 1019.1 |
| 20260901092505 | 67 | 360 | 0.0 | 0.0 | 0.00 | 0.21 | 0.00 | 70 | 1019.0 |
| 20260901090606 | 67 | 360 | 1.0 | 2.0 | 0.00 | 0.21 | 0.00 | 70 | 1019.1 |
| 20260901085621 | 67 | 360 | 0.0 | 0.0 | 0.00 | 0.21 | 0.00 | 70 | 1019.2 |
| 20260901084706 | 67 | 360 | 0.0 | 0.0 | 0.00 | 0.21 | 0.00 | 69 | 1019.3 |
| 20260901084623 | 67 | 360 | 0.0 | 0.0 | 0.00 | 0.21 | 0.00 | 68 | 1019.3 |
| 20260901083624 | 67 | 360 | 0.0 | 0.0 | 0.00 | 0.21 | 0.00 | 67 | 1019.3 |
| 20260901082721 | 68 | 360 | 0.0 | 0.0 | 0.00 | 0.21 | 0.00 | 66 | 1019.4 |
| 20260901081722 | 68 | 360 | 1.0 | 2.0 | 0.00 | 0.21 | 0.00 | 66 | 1019.4 |
| 20260901080621 | 69 | 270 | 0.0 | 0.0 | 0.00 | 0.21 | 0.00 | 64 | 1019.4 |
| 20260901075707 | 69 | 270 | 0.0 | 0.0 | 0.00 | 0.21 | 0.00 | 63 | 1019.3 |
| 20260901074722 | 69 | 270 | 0.0 | 0.0 | 0.00 | 0.21 | 0.00 | 62 | 1019.3 |
| 20260901073706 | 70 | 270 | 0.0 | 1.0 | 0.00 | 0.21 | 0.00 | 59 | 1019.4 |
| 20260901072706 | 71 | 270 | 0.0 | 0.0 | 0.00 | 0.21 | 0.00 | 57 | 1019.4 |
| 20260901071804 | 72 | 122 | 2.0 | 3.0 | 0.00 | 0.21 | 0.00 | 54 | 1019.4 |
| 20260901070807 | 72 | 90 | 2.0 | 4.0 | 0.00 | 0.21 | 0.00 | 54 | 1019.2 |
| 20260901065905 | 73 | 135 | 0.0 | 2.0 | 0.00 | 0.21 | 0.00 | 53 | 1019.1 |
| 20260901064907 | 72 | 99 | 3.0 | 5.0 | 0.00 | 0.21 | 0.00 | 54 | 1019.0 |
| 20260901064005 | 70 | 112 | 1.0 | 4.0 | 0.00 | 0.21 | 0.00 | 58 | 1018.9 |
| 20260901063006 | 70 | 112 | 0.0 | 0.0 | 0.00 | 0.21 | 0.00 | 59 | 1018.9 |
| 20260901062006 | 70 | 180 | 0.0 | 0.0 | 0.00 | 0.21 | 0.00 | 58 | 1019.2 |
| 20260901061008 | 70 | 180 | 0.0 | 0.0 | 0.00 | 0.21 | 0.00 | 58 | 1018.8 |
| 20260901060021 | 70 | 202 | 0.0 | 0.0 | 0.00 | 0.21 | 0.00 | 57 | 1018.8 |
| 20260901055004 | 70 | 45 | 1.0 | 2.0 | 0.00 | 0.21 | 0.21 | 56 | 1018.7 |
| 20260901054021 | 70 | 337 | 0.0 | 0.0 | 0.00 | 0.21 | 0.21 | 56 | 1018.9 |
| 20260901052004 | 70 | 22 | 1.0 | 2.0 | 0.00 | 0.21 | 0.21 | 56 | 1018.9 |
| 20260901051020 | 70 | 28 | 3.0 | 4.0 | 0.00 | 0.21 | 0.21 | 56 | 1018.8 |
| 20260901050006 | 71 | 337 | 1.0 | 2.0 | 0.00 | 0.21 | 0.21 | 56 | 1018.8 |
| 20260901044021 | 71 | 347 | 2.0 | 4.0 | 0.00 | 0.21 | 0.21 | 55 | 1018.7 |
| 20260901043022 | 71 | 67 | 0.0 | 0.0 | 0.00 | 0.21 | 0.21 | 54 | 1018.5 |
| 20260901042106 | 72 | 133 | 1.0 | 2.0 | 0.00 | 0.21 | 0.21 | 53 | 1018.7 |
| 20260901041120 | 71 | 45 | 0.0 | 0.0 | 0.00 | 0.21 | 0.21 | 54 | 1018.5 |
| 20260901040205 | 71 | 157 | 0.0 | 0.0 | 0.00 | 0.21 | 0.21 | 54 | 1018.6 |
| 20260901040105 | 71 | 157 | 0.0 | 0.0 | 0.00 | 0.21 | 0.21 | 53 | 1018.6 |
| 20260901035105 | 72 | 247 | 6.0 | 6.0 | 0.00 | 0.21 | 0.21 | 53 | 1018.1 |
| 20260901034108 | 72 | 264 | 7.0 | 11.0 | 0.00 | 0.21 | 0.21 | 54 | 1018.0 |
| 20260901033107 | 73 | 297 | 2.0 | 4.0 | 0.00 | 0.21 | 0.21 | 54 | 1017.7 |
| 20260901032205 | 73 | 253 | 5.0 | 9.0 | 0.00 | 0.21 | 0.21 | 53 | 1017.3 |
| 20260901030206 | 74 | 307 | 2.0 | 5.0 | 0.00 | 0.21 | 0.21 | 54 | 1017.1 |
| 20260901025306 | 75 | 270 | 0.0 | 0.0 | 0.00 | 0.21 | 0.21 | 55 | 1016.7 |
| 20260901024309 | 76 | 277 | 6.0 | 11.0 | 0.00 | 0.21 | 0.21 | 50 | 1016.3 |
| 20260901023323 | 80 | 303 | 6.0 | 8.0 | 0.00 | 0.21 | 0.21 | 44 | 1016.1 |
| 20260901022407 | 82 | 322 | 7.0 | 14.0 | 0.00 | 0.21 | 0.21 | 40 | 1015.7 |
| 20260901021408 | 82 | 90 | 7.0 | 12.0 | 0.00 | 0.21 | 0.21 | 44 | 1015.5 |
| 20260901020409 | 84 | 2 | 4.0 | 6.0 | 0.00 | 0.21 | 0.21 | 37 | 1015.2 |
| 20260901015408 | 85 | 63 | 6.0 | 10.0 | 0.00 | 0.21 | 0.21 | 34 | 1014.5 |
| 20260901013408 | 85 | 59 | 2.0 | 6.0 | 0.00 | 0.21 | 0.21 | 35 | 1014.2 |
| 20260901012423 | 86 | 60 | 5.0 | 8.0 | 0.00 | 0.21 | 0.21 | 35 | 1014.1 |
| 20260901011506 | 86 | 56 | 4.0 | 7.0 | 0.00 | 0.21 | 0.21 | 34 | 1014.2 |
| 20260901005606 | 86 | 80 | 7.0 | 11.0 | 0.00 | 0.21 | 0.21 | 35 | 1014.1 |
| 20260901002623 | 90 | 122 | 2.0 | 6.0 | 0.00 | 0.21 | 0.21 | 32 | 1014.1 |
| 20260901001621 | 90 | 87 | 4.0 | 7.0 | 0.00 | 0.21 | 0.21 | 31 | 1014.3 |
| 20260901000706 | 90 | 75 | 3.0 | 6.0 | 0.00 | 0.21 | 0.21 | 32 | 1014.1 |
| 20260831235706 | 89 | 171 | 1.0 | 4.0 | 0.00 | 0.21 | 0.21 | 33 | 1014.4 |
| 20260831234708 | 90 | 154 | 3.0 | 7.0 | 0.00 | 0.21 | 0.21 | 33 | 1014.4 |
| 20260831233705 | 91 | 147 | 4.0 | 8.0 | 0.00 | 0.21 | 0.21 | 33 | 1014.6 |
| 20260831232707 | 90 | 119 | 1.0 | 3.0 | 0.00 | 0.21 | 0.21 | 32 | 1014.7 |
| 20260831231805 | 92 | 151 | 1.0 | 3.0 | 0.00 | 0.21 | 0.21 | 31 | 1014.8 |
| 20260831230806 | 91 | 53 | 2.0 | 3.0 | 0.00 | 0.21 | 0.21 | 32 | 1014.7 |
| 20260831224807 | 89 | 75 | 6.0 | 9.0 | 0.00 | 0.21 | 0.21 | 33 | 1014.7 |
| 20260831222807 | 86 | 73 | 0.0 | 1.0 | 0.00 | 0.21 | 0.21 | 37 | 1015.1 |
| 20260831221807 | 85 | 73 | 6.0 | 12.0 | 0.00 | 0.21 | 0.21 | 37 | 1014.9 |
| 20260831214905 | 86 | 71 | 6.0 | 10.0 | 0.00 | 0.21 | 0.21 | 36 | 1015.3 |
| 20260831213921 | 86 | 43 | 7.0 | 16.0 | 0.00 | 0.21 | 0.21 | 37 | 1015.3 |
| 20260831212907 | 86 | 59 | 7.0 | 10.0 | 0.00 | 0.21 | 0.21 | 38 | 1015.6 |
| 20260831211006 | 86 | 66 | 7.0 | 14.0 | 0.01 | 0.21 | 0.21 | 38 | 1015.9 |
| 20260831210024 | 84 | 92 | 2.0 | 4.0 | 0.01 | 0.21 | 0.21 | 40 | 1016.1 |
| 20260831205022 | 84 | 112 | 2.0 | 3.0 | 0.01 | 0.21 | 0.21 | 42 | 1016.6 |
| 20260831204104 | 83 | 77 | 3.0 | 7.0 | 0.02 | 0.21 | 0.21 | 44 | 1016.6 |
| 20260831203106 | 81 | 67 | 0.0 | 1.0 | 0.02 | 0.21 | 0.21 | 46 | 1016.9 |
| 20260831202104 | 79 | 1 | 1.0 | 4.0 | 0.02 | 0.21 | 0.21 | 55 | 1017.0 |
| 20260831201124 | 76 | 302 | 6.0 | 9.0 | 0.01 | 0.20 | 0.20 | 67 | 1017.2 |
| 20260831200221 | 74 | 336 | 2.0 | 4.0 | 0.02 | 0.20 | 0.20 | 70 | 1016.7 |
| 20260831195307 | 75 | 103 | 3.0 | 6.0 | 0.03 | 0.20 | 0.20 | 71 | 1017.4 |